Temperature
13 13 14 14 11 9 10 11 12 12 13 14 15 15 14 14 15 16 16 16 16 16 16 16 16 16 16 16 16 16 16 16 16 16 16 16 16 16 16 16 16 15 15 15 15 15 15 15 15
13 13 14 13 9 10 10 10 11 12 13 14 14 14 14 14 15 15 15 16 16 16 16 15 15 16 16 16 16 16 16 16 16 16 16 16 16 16 15 15 15 15 15 15 15 15 15 15 15
12 13 13 8 8 9 11 11 11 12 13 13 13 13 13 14 14 15 15 15 15 15 15 15 15 15 16 16 16 16 16 16 16 16 16 16 16 16 15 15 15 15 15 15 15 15 15 15 15
12 12 11 8 9 9 10 11 10 11 12 13 13 12 13 13 14 14 14 14 15 15 15 15 15 15 16 16 15 15 15 16 16 16 16 16 15 15 15 15 15 15 15 15 15 15 15 15 15
12 11 8 8 9 9 9 10 11 10 11 12 12 11 12 13 13 13 14 14 14 15 15 15 15 15 15 15 15 15 15 15 16 15 15 15 15 15 15 15 15 15 15 15 15 15 15 15 14
11 8 7 8 8 9 9 11 11 10 11 11 11 11 12 13 13 13 13 13 14 14 14 14 15 15 15 15 15 15 15 15 15 15 15 15 15 15 15 15 14 15 15 15 15 15 14 14 14
9 6 7 8 7 8 10 11 10 10 10 11 11 11 12 12 12 12 13 13 13 13 14 14 14 14 14 15 15 15 15 15 15 15 15 15 15 15 15 14 14 14 14 14 14 14 14 14 14
10 6 7 7 7 8 10 10 11 10 10 11 11 11 11 12 12 12 12 12 13 13 13 14 14 14 14 14 15 15 15 15 15 15 15 15 15 14 14 14 14 14 14 14 14 14 14 14 14
9 6 7 7 8 8 9 9 10 10 10 10 11 11 11 11 11 11 12 12 12 13 13 13 14 14 14 14 14 14 14 14 14 14 14 14 14 14 14 14 14 14 14 14 14 14 14 14 14
8 6 7 8 8 8 9 9 9 9 9 10 10 11 11 11 11 11 11 11 12 12 12 13 13 13 14 14 14 14 14 14 14 14 14 14 14 14 14 14 14 14 14 14 14 14 14 13 13
8 7 8 8 9 9 8 9 9 9 8 9 10 10 10 10 11 11 11 11 11 12 12 12 12 13 13 13 13 14 14 14 14 14 14 14 14 14 14 13 13 13 14 14 14 14 13 13 13
7 7 8 8 9 9 8 9 9 9 9 10 10 10 10 10 10 10 11 11 11 11 12 12 12 12 13 13 13 13 13 13 13 13 13 13 13 13 13 13 13 13 13 13 13 13 13 13 13
7 7 8 9 9 9 8 8 8 9 10 10 10 10 10 10 10 10 11 11 11 11 11 12 12 12 12 12 13 13 13 13 13 13 13 13 13 13 13 13 13 13 13 13 13 13 13 13 13
7 7 8 8 8 8 8 8 8 9 10 10 10 10 10 10 10 10 10 10 11 11 11 11 11 11 11 12 12 12 12 13 13 13 13 13 13 13 13 13 13 13 13 13 13 13 13 12 12
8 7 7 8 8 8 8 8 8 9 9 9 9 9 9 9 9 9 10 10 10 11 11 11 11 11 11 11 12 12 12 12 12 12 12 12 12 12 12 12 12 12 12 12 12 12 12 12 12
7 7 7 8 8 8 8 7 8 9 9 9 9 9 9 9 9 9 10 10 10 10 11 11 11 11 11 11 11 12 12 12 12 12 12 12 12 12 12 12 12 12 12 12 12 12 12 12 11
6 6 6 7 8 8 7 7 8 9 9 8 9 9 9 9 9 9 9 10 10 10 10 10 10 11 11 11 11 11 11 11 11 11 11 11 11 12 12 12 12 12 11 11 11 11 11 11 11
7 6 6 6 7 7 7 7 8 9 8 8 9 9 8 9 9 9 9 9 9 10 10 10 10 10 10 10 10 11 11 11 11 11 11 11 11 11 11 11 11 11 11 11 11 11 11 10 10
6 6 6 7 7 7 7 7 8 8 8 8 8 8 8 9 9 9 9 9 9 9 9 10 10 10 10 10 10 10 11 11 11 11 11 10 11 11 10 10 11 11 10 10 10 10 10 10 10
6 6 6 6 7 7 7 7 7 7 8 8 8 8 8 9 9 9 9 9 9 9 9 9 10 10 10 10 10 10 10 10 10 10 10 10 10 10 10 10 10 10 10 10 10 10 10 10 9
7 6 6 6 7 7 7 7 7 8 8 8 8 8 8 8 9 9 9 9 9 9 9 9 9 9 9 9 9 10 10 10 9 9 10 10 10 10 10 10 9 9 9 9 9 9 9 9 9
7 7 7 7 6 6 6 6 7 7 7 7 7 8 8 8 9 9 9 9 9 9 9 9 9 9 9 9 9 9 9 9 9 9 9 9 9 9 9 9 9 9 9 9 9 9 9 9 9
7 7 7 7 6 6 6 6 6 6 7 7 7 8 8 8 9 9 9 9 9 9 9 9 9 9 9 9 9 9 9 9 9 9 9 9 9 9 9 9 9 9 9 9 8 8 8 8 8
7 7 7 6 6 7 6 6 6 6 7 7 7 8 8 9 9 9 9 9 9 9 9 9 9 9 9 9 9 9 8 9 8 8 9 9 9 9 9 8 8 8 8 8 8 8 8 8 8
6 6 6 6 6 6 6 6 6 7 7 7 7 8 9 9 9 9 9 9 9 9 9 9 9 9 9 9 8 8 8 8 8 8 8 8 8 8 8 8 8 8 8 8 8 7 7 7 7
7 7 6 7 6 6 6 6 7 7 7 7 8 8 8 9 9 9 9 9 9 9 9 9 9 9 9 8 8 8 8 8 8 8 8 8 8 8 8 8 7 7 7 7 7 7 7 7 7
7 6 6 5 5 5 6 6 7 7 7 7 7 8 8 8 9 9 9 9 9 9 9 9 9 9 8 8 8 8 8 8 8 8 7 7 7 7 7 7 7 7 7 7 7 7 6 6 6
7 5 4 5 7 7 7 6 6 7 7 6 6 7 8 8 9 9 9 9 9 9 9 9 8 8 8 8 8 8 8 8 8 7 7 7 7 7 7 7 7 7 7 6 6 6 6 6 6
6 6 5 4 5 6 6 7 7 7 7 6 6 7 8 8 8 9 9 9 8 8 8 8 8 8 8 8 8 8 8 7 7 7 7 7 7 7 7 6 6 6 6 6 6 6 6 5 5
6 6 5 6 5 4 4 6 7 6 6 6 6 7 8 8 8 8 8 8 8 8 8 8 8 8 8 8 7 7 7 7 7 7 7 7 6 6 6 6 6 6 6 5 5 5 5 5 5
Wind_Speed
11 7 3 4 5 3 2 4 3 3 3 2 1 2 4 4 4 4 2 2 2 3 7 10 12 13 13 12 12 13 13 14 13 13 13 13 12 12 11 11 11 10 10 10 10 10 10 10 10
5 4 5 5 4 2 5 4 4 4 3 3 2 0 1 3 2 2 2 2 1 3 6 9 12 14 14 13 12 12 13 14 13 13 12 12 12 11 11 11 10 10 10 10 10 10 10 10 10
4 5 5 4 3 5 4 3 4 4 4 2 2 1 1 3 2 2 2 2 1 2 5 8 11 13 14 14 13 11 13 13 13 13 12 12 12 11 11 10 10 10 10 9 9 9 10 10 9
4 5 5 3 3 4 4 3 3 5 5 2 0 2 2 2 2 2 2 0 2 2 4 7 10 13 14 14 14 12 12 13 13 13 12 12 12 11 11 10 10 9 9 9 9 9 9 9 9
4 5 4 0 4 4 4 4 3 3 4 3 1 2 3 3 2 2 1 1 2 2 3 7 9 11 13 13 14 13 12 12 12 12 13 12 11 11 10 10 9 9 9 8 8 8 9 9 9
4 4 3 3 4 4 4 4 2 3 3 3 1 2 4 2 3 2 1 1 2 2 3 5 9 10 12 14 13 14 13 12 12 12 12 12 12 11 10 9 9 9 8 8 8 8 8 9 9
4 3 2 2 3 4 4 3 2 3 4 4 2 2 4 2 2 2 1 1 2 3 3 3 6 9 11 12 13 13 13 12 12 12 11 11 11 11 10 9 9 9 8 8 7 8 8 9 9
4 4 1 2 3 5 3 3 2 3 5 3 2 3 4 4 3 2 2 1 3 3 4 3 4 6 8 10 12 13 13 13 12 12 12 12 11 10 9 8 8 8 8 8 8 8 9 9 9
3 3 2 3 4 5 3 3 4 2 3 3 3 4 5 2 1 1 1 1 2 3 2 3 3 5 6 8 10 11 12 12 11 11 12 12 10 10 9 9 8 8 8 8 9 8 9 9 9
4 2 5 4 3 4 4 4 4 4 4 4 5 5 3 2 2 2 2 1 1 2 2 2 3 4 6 7 7 9 9 10 10 10 11 10 10 10 9 9 9 8 8 8 8 9 9 8 8
1 4 4 4 4 4 4 5 3 3 6 6 7 6 3 4 4 4 4 3 2 2 2 3 3 4 6 6 6 7 8 9 9 9 10 10 10 9 9 9 9 9 8 8 8 8 8 7 7
1 4 4 5 3 3 5 4 4 6 9 7 7 6 5 6 6 5 3 3 2 2 2 3 4 4 5 6 5 6 6 6 7 8 9 9 7 7 7 7 7 7 7 7 6 6 7 7 7
2 4 5 6 7 6 6 7 6 9 10 8 6 5 6 7 5 3 2 2 3 3 3 3 5 5 4 5 5 6 5 6 7 8 8 9 7 5 5 5 6 6 6 6 5 5 6 6 6
3 4 7 7 7 5 6 8 5 9 7 6 5 5 6 6 4 2 2 2 2 3 4 5 5 5 5 5 5 5 5 6 7 7 8 9 8 6 5 5 5 5 6 6 5 5 5 4 5
3 5 7 4 4 3 3 7 6 9 5 5 5 4 4 3 2 3 3 3 2 3 3 6 6 6 5 5 5 5 6 7 6 6 8 8 8 8 7 5 4 5 6 7 6 6 5 4 4
3 3 5 5 2 3 0 8 8 5 3 5 4 3 3 2 1 1 2 2 2 4 4 5 6 7 6 5 5 5 6 7 6 7 7 7 7 8 7 5 4 5 6 6 4 3 4 4 4
3 4 5 7 3 2 1 7 8 4 3 4 3 2 2 2 1 1 2 2 2 4 4 6 6 7 6 5 6 6 6 6 6 6 6 6 7 7 7 5 4 5 5 4 3 4 3 3 4
4 5 5 6 5 3 4 9 10 5 3 4 3 2 2 3 2 1 2 2 2 2 4 5 6 6 6 4 5 5 5 4 5 5 5 6 6 7 7 5 5 5 4 4 4 4 4 3 3
4 5 8 8 5 4 6 9 10 7 4 3 3 3 2 2 2 2 3 3 2 3 5 5 6 5 5 3 3 4 3 2 3 4 5 6 6 6 6 4 4 4 4 4 4 3 4 3 2
4 6 6 7 4 3 6 9 8 5 3 3 3 3 3 2 2 3 3 3 2 3 4 5 5 5 4 3 2 3 3 3 2 3 5 5 6 5 5 4 3 3 3 4 3 3 2 2 3
4 4 5 6 6 3 4 7 5 4 2 2 2 2 2 4 4 3 3 3 3 3 4 4 5 5 4 4 4 5 4 3 2 3 2 3 4 5 5 5 4 3 3 3 3 3 3 2 2
5 4 5 4 4 4 3 4 7 5 5 3 3 2 2 2 3 3 4 3 3 3 3 4 5 5 4 4 5 5 4 3 2 2 2 2 3 4 5 5 4 3 3 3 2 2 2 3 1
6 4 3 2 1 3 3 1 7 4 4 5 4 3 3 3 3 4 5 5 3 3 3 4 4 4 4 4 4 5 4 2 2 3 3 2 2 3 4 4 4 3 2 2 2 2 2 2 2
4 3 1 2 2 2 2 1 6 3 4 5 4 4 3 3 3 3 3 4 3 3 3 4 4 4 4 4 4 5 5 5 4 3 2 1 1 1 2 2 3 2 2 2 2 2 3 2 2
3 4 5 6 4 4 2 1 6 6 5 4 5 5 4 3 3 3 4 4 4 5 4 4 5 4 4 4 4 4 5 5 5 4 3 2 1 1 1 1 1 1 2 2 2 2 2 2 2
1 3 3 1 3 5 4 4 6 5 5 5 4 3 2 2 3 4 5 5 5 5 5 5 5 4 4 4 4 4 4 3 3 3 3 4 3 2 2 2 2 2 2 2 2 2 2 2 2
1 1 2 3 1 3 6 6 7 3 5 5 4 2 2 3 4 4 4 4 4 5 5 6 5 4 5 5 4 4 4 4 4 3 3 2 2 2 3 3 2 2 3 3 3 2 2 2 2
2 4 4 2 1 4 7 5 4 7 7 6 5 4 4 3 3 3 4 4 4 4 4 4 5 5 4 5 4 4 4 4 4 4 4 3 3 2 3 3 3 2 2 2 2 2 2 2 2
2 2 2 2 2 2 4 6 4 5 4 5 5 5 4 3 3 3 3 3 3 3 4 4 4 4 4 4 4 4 4 4 4 4 4 3 3 3 3 4 3 3 3 3 3 3 3 3 3
3 4 5 2 3 3 3 7 4 3 4 4 5 4 4 3 2 2 2 2 3 3 4 4 4 4 4 4 4 4 4 4 4 4 4 3 3 3 3 3 3 3 3 3 4 4 4 4 4
Wind_Direction
348 358 42 53 57 53 232 243 246 270 261 277 261 214 193 190 192 232 330 50 74 160 173 170 164 155 151 145 141 142 142 139 137 134 131 127 124 122 118 116 113 110 108 105 98 97 99 99 98
349 14 49 62 106 204 258 250 251 251 278 312 330 41 190 242 255 299 333 345 61 151 162 166 162 156 150 146 143 144 144 142 139 136 135 132 128 125 122 118 114 110 107 103 98 96 100 97 98
14 46 75 83 143 195 233 248 246 284 296 313 337 338 243 258 298 282 293 309 54 125 153 161 162 159 150 147 145 145 144 143 140 138 138 134 132 128 123 120 116 112 108 107 102 97 101 97 95
49 44 58 87 209 224 231 272 286 317 327 347 -0 293 278 282 289 282 301 332 99 112 146 155 157 160 153 149 148 146 144 142 140 141 140 137 133 129 124 119 116 115 111 107 104 100 102 97 90
54 72 69 304 251 257 259 278 288 312 307 310 315 264 275 303 331 352 13 142 134 125 137 155 153 159 158 152 149 146 143 141 139 140 139 136 133 129 124 120 117 117 113 110 106 102 99 95 91
54 68 105 238 265 282 279 275 295 296 284 296 276 249 260 311 9 354 358 159 142 132 114 155 158 157 159 153 149 146 142 140 137 131 132 136 134 130 126 124 122 119 114 109 105 102 96 91 89
93 97 162 220 269 281 271 284 250 265 273 263 235 234 273 303 315 323 334 141 118 107 92 115 147 154 154 153 149 146 140 135 132 127 124 123 124 127 126 124 123 119 113 109 106 102 94 89 88
109 101 123 241 244 260 284 312 279 249 263 273 201 219 258 273 308 341 4 105 117 107 92 88 113 127 137 144 146 141 134 128 124 119 114 110 109 109 111 114 118 116 112 107 104 101 95 89 87
82 80 222 231 228 260 295 307 299 282 263 277 256 257 272 252 312 22 17 32 106 110 105 92 120 115 121 125 133 127 121 117 116 112 107 102 98 96 91 91 101 109 108 105 99 99 95 89 84
82 159 230 229 223 258 287 278 277 311 302 285 290 296 291 223 199 187 205 191 172 159 144 116 133 124 117 115 113 111 108 105 103 105 103 99 94 90 87 84 82 86 92 96 93 91 89 84 78
126 207 245 264 252 262 278 282 267 247 268 257 268 277 262 235 217 207 208 189 193 176 157 133 116 118 108 104 103 103 103 101 98 100 103 99 92 87 81 76 70 71 72 75 79 76 75 76 77
262 256 249 266 264 259 259 270 276 239 249 257 255 257 236 234 226 216 201 187 158 138 153 122 102 97 103 106 103 104 103 99 96 98 102 101 92 84 81 75 73 70 71 70 70 75 74 72 74
259 278 277 267 273 260 260 257 262 264 266 270 270 253 230 230 231 217 171 163 155 145 144 124 103 102 103 101 99 95 99 102 102 99 98 102 98 92 87 81 78 77 77 76 73 76 77 72 67
266 277 287 281 269 263 261 269 261 269 273 276 262 240 227 225 219 182 157 170 169 153 155 128 114 112 108 104 104 102 99 101 98 96 98 101 103 101 93 83 72 69 75 81 82 81 82 78 77
289 306 311 289 273 274 274 291 255 267 273 272 260 235 223 224 212 198 180 170 174 145 141 131 128 115 110 111 113 109 102 99 93 93 97 99 103 105 98 88 73 67 77 82 79 71 72 73 74
339 347 322 304 299 285 234 282 282 286 271 271 263 236 227 229 220 202 145 140 143 131 132 130 128 118 109 105 103 101 100 98 95 96 96 97 101 103 98 90 77 77 81 79 77 65 68 63 66
10 330 299 303 296 287 236 275 293 298 275 273 270 238 227 237 228 142 130 128 140 146 138 125 121 118 112 102 101 93 89 88 92 95 94 95 97 99 96 89 85 87 80 72 77 65 70 66 61
303 301 292 290 300 302 275 275 291 299 274 269 277 268 223 237 233 172 146 123 111 123 126 124 117 112 109 103 96 88 76 74 79 83 87 95 97 100 98 92 86 87 84 73 75 81 68 74 66
265 274 284 279 285 297 280 284 290 291 273 264 268 265 242 227 219 145 139 128 109 121 127 123 115 112 116 118 117 107 101 90 80 77 81 88 95 100 100 98 89 85 89 92 90 91 82 58 48
258 287 293 295 301 283 297 297 294 285 263 244 249 251 239 219 174 137 129 129 131 138 133 127 125 122 118 119 125 116 113 102 91 78 73 79 89 95 102 102 98 94 98 90 84 91 95 63 40
270 255 279 292 316 330 328 318 315 315 322 314 288 249 224 199 183 152 143 147 153 157 156 148 139 129 119 112 104 95 83 75 76 75 64 59 87 96 103 108 107 101 107 112 100 97 110 112 48
284 262 264 293 338 324 11 318 304 304 320 311 292 285 224 200 171 154 161 167 171 171 158 143 139 132 130 129 129 126 131 138 145 127 108 73 82 91 99 106 109 106 102 111 108 94 107 119 112
253 289 273 273 265 319 352 261 297 326 317 304 293 278 248 205 181 175 170 173 170 145 142 139 132 133 137 139 140 136 130 125 106 102 104 83 67 82 94 104 106 106 106 112 107 107 111 119 142
275 337 9 43 60 332 299 203 296 285 268 294 291 283 259 213 191 181 162 141 136 128 129 128 134 140 145 145 146 155 150 140 135 138 139 124 90 72 82 104 113 121 125 129 128 127 120 118 127
26 43 16 2 5 280 306 235 260 272 275 263 269 273 265 225 190 181 176 168 157 154 156 152 154 153 153 153 158 164 162 162 168 170 171 169 173 191 197 133 152 159 157 151 145 135 133 135 139
349 107 126 271 286 299 324 257 262 280 297 295 284 268 259 235 205 201 201 191 175 165 161 162 168 163 164 165 170 169 171 170 176 181 183 188 194 198 190 188 193 187 175 166 153 144 160 143 152
111 119 161 148 271 290 289 292 304 314 330 337 337 337 281 243 222 213 204 199 183 176 178 175 173 172 176 172 171 176 178 178 183 184 186 190 193 190 182 185 190 190 182 177 165 172 181 160 167
122 140 94 109 342 304 305 298 286 308 317 328 326 312 290 271 246 223 205 200 192 182 181 173 175 180 175 171 174 179 183 186 181 176 185 190 191 185 179 188 189 189 188 181 173 185 189 180 189
126 119 119 131 168 193 298 287 240 260 289 301 296 295 292 278 256 238 218 196 178 165 171 176 180 173 170 176 176 175 184 184 177 183 194 192 189 189 192 194 192 194 198 192 190 203 195 197 206
181 179 152 159 255 200 224 272 283 286 301 303 304 304 297 280 267 244 213 181 178 179 181 182 185 187 189 179 177 184 182 177 182 196 199 190 196 197 196 193 193 203 206 202 201 208 205 204 214
Height
1501 1502 1503 1505 1510 1520 1521 1516 1512 1509 1507 1506 1505 1505 1505 1506 1508 1509 1503 1500 1501 1503 1505 1508 1510 1512 1514 1516 1518 1519 1521 1522 1524 1525 1526 1527 1528 1529 1530 1531 1532 1533 1534 1535 1536 1536 1537 1538 1538
1501 1502 1505 1505 1516 1524 1521 1514 1512 1508 1506 1505 1504 1503 1503 1502 1502 1501 1499 1500 1501 1503 1505 1507 1509 1511 1513 1515 1517 1519 1520 1522 1523 1524 1526 1527 1528 1529 1530 1531 1532 1533 1534 1535 1536 1536 1537 1538 1539
1502 1503 1505 1509 1518 1521 1516 1511 1510 1507 1505 1505 1504 1503 1503 1501 1500 1499 1499 1499 1501 1503 1505 1506 1509 1510 1512 1514 1516 1518 1520 1521 1523 1524 1525 1527 1528 1529 1530 1531 1532 1533 1534 1535 1536 1536 1537 1538 1539
1503 1504 1507 1514 1516 1515 1512 1509 1508 1506 1505 1504 1503 1502 1501 1501 1500 1499 1498 1499 1500 1502 1504 1506 1508 1509 1511 1513 1515 1517 1519 1521 1522 1523 1525 1526 1528 1529 1530 1531 1532 1533 1534 1535 1536 1536 1537 1538 1539
1503 1505 1512 1517 1515 1513 1510 1508 1507 1507 1505 1504 1503 1501 1499 1500 1498 1498 1498 1498 1499 1501 1503 1505 1507 1509 1511 1513 1515 1516 1518 1520 1521 1523 1524 1526 1527 1529 1530 1531 1532 1533 1534 1535 1536 1536 1537 1538 1539
1505 1507 1518 1520 1516 1512 1509 1507 1507 1506 1504 1503 1502 1501 1498 1498 1497 1497 1497 1498 1499 1500 1502 1504 1506 1508 1510 1512 1514 1515 1517 1519 1521 1522 1524 1525 1527 1528 1530 1531 1532 1533 1534 1535 1536 1536 1537 1538 1539
1507 1513 1517 1517 1517 1513 1508 1506 1506 1505 1503 1503 1501 1500 1497 1497 1496 1496 1496 1497 1498 1500 1501 1503 1505 1507 1509 1511 1513 1515 1516 1518 1520 1522 1523 1525 1526 1528 1529 1531 1532 1533 1534 1535 1535 1536 1537 1538 1539
1508 1513 1517 1518 1516 1512 1507 1506 1504 1504 1502 1501 1501 1499 1496 1495 1495 1495 1495 1496 1497 1498 1500 1501 1503 1505 1507 1509 1511 1513 1515 1517 1519 1520 1522 1524 1526 1527 1529 1530 1531 1533 1534 1534 1535 1536 1537 1538 1539
1509 1516 1518 1515 1513 1510 1506 1505 1504 1502 1501 1500 1499 1497 1495 1494 1493 1493 1493 1494 1495 1497 1498 1499 1501 1503 1505 1508 1510 1512 1515 1516 1518 1519 1521 1523 1525 1527 1528 1529 1531 1532 1533 1534 1535 1536 1537 1538 1538
1510 1517 1514 1510 1509 1507 1505 1504 1503 1501 1499 1497 1496 1495 1493 1492 1492 1491 1491 1491 1492 1494 1496 1498 1499 1501 1504 1506 1508 1511 1514 1516 1517 1518 1521 1522 1524 1526 1527 1529 1530 1531 1533 1534 1535 1535 1536 1537 1538
1511 1513 1510 1508 1506 1506 1504 1503 1501 1500 1498 1495 1494 1492 1491 1490 1489 1489 1489 1490 1491 1493 1495 1496 1497 1500 1502 1505 1507 1509 1513 1515 1517 1518 1520 1522 1524 1525 1527 1528 1530 1531 1532 1533 1534 1535 1536 1536 1537
1511 1509 1508 1506 1505 1504 1503 1501 1499 1497 1494 1493 1491 1490 1489 1488 1487 1486 1487 1488 1490 1491 1494 1495 1496 1498 1502 1504 1506 1509 1512 1514 1516 1518 1520 1521 1523 1525 1526 1528 1529 1530 1531 1532 1533 1534 1535 1536 1537
1511 1508 1506 1504 1503 1501 1500 1498 1497 1493 1491 1490 1488 1487 1486 1486 1486 1486 1486 1488 1489 1490 1492 1494 1495 1498 1501 1503 1506 1508 1511 1513 1516 1518 1520 1521 1523 1524 1526 1527 1528 1530 1531 1532 1532 1533 1534 1535 1536
1509 1507 1505 1502 1500 1499 1498 1495 1495 1488 1488 1487 1485 1484 1484 1485 1485 1485 1485 1486 1488 1489 1491 1492 1495 1498 1500 1503 1506 1508 1510 1513 1515 1518 1519 1521 1522 1524 1525 1526 1528 1529 1530 1531 1532 1533 1533 1534 1535
1508 1507 1503 1500 1498 1497 1497 1494 1490 1486 1486 1484 1483 1483 1483 1483 1484 1484 1485 1486 1487 1489 1490 1492 1496 1498 1501 1503 1505 1508 1510 1512 1515 1517 1519 1521 1522 1523 1525 1526 1527 1528 1529 1530 1531 1532 1532 1533 1534
1508 1509 1508 1501 1498 1496 1499 1495 1487 1485 1484 1482 1482 1481 1481 1482 1482 1483 1484 1486 1488 1489 1490 1492 1495 1497 1500 1502 1505 1507 1509 1512 1514 1516 1518 1520 1521 1523 1524 1526 1527 1528 1529 1529 1530 1531 1531 1532 1533
1512 1514 1510 1504 1498 1497 1497 1493 1486 1484 1483 1481 1480 1480 1480 1480 1481 1483 1484 1486 1488 1490 1491 1493 1495 1496 1499 1502 1504 1505 1508 1511 1513 1515 1517 1519 1521 1522 1523 1525 1526 1527 1527 1528 1529 1530 1531 1531 1532
1515 1514 1510 1506 1499 1497 1496 1491 1485 1483 1482 1480 1479 1479 1479 1479 1480 1482 1483 1485 1487 1489 1491 1493 1495 1496 1499 1501 1503 1505 1507 1510 1512 1514 1517 1519 1520 1521 1522 1523 1524 1526 1527 1527 1528 1529 1530 1530 1530
1513 1513 1510 1504 1498 1497 1494 1490 1484 1481 1480 1479 1479 1478 1478 1478 1480 1481 1483 1485 1487 1489 1491 1493 1494 1496 1498 1500 1502 1505 1507 1509 1511 1514 1516 1518 1519 1520 1522 1523 1524 1525 1526 1526 1527 1528 1528 1529 1529
1512 1511 1508 1502 1497 1496 1494 1489 1482 1479 1478 1477 1477 1477 1477 1478 1479 1480 1482 1483 1485 1487 1490 1492 1494 1496 1498 1500 1502 1504 1506 1509 1511 1513 1515 1517 1518 1520 1521 1522 1523 1524 1525 1525 1526 1527 1527 1528 1528
1509 1509 1507 1504 1499 1496 1495 1490 1483 1479 1477 1476 1476 1476 1476 1477 1478 1479 1481 1483 1485 1487 1489 1492 1494 1496 1498 1500 1502 1504 1506 1508 1510 1512 1514 1516 1518 1519 1521 1521 1522 1523 1524 1524 1525 1525 1526 1526 1527
1508 1504 1503 1502 1503 1504 1500 1500 1486 1481 1478 1476 1476 1475 1475 1476 1477 1479 1481 1483 1484 1487 1489 1491 1494 1496 1498 1500 1502 1503 1505 1507 1509 1511 1513 1516 1517 1519 1520 1520 1521 1522 1522 1523 1523 1524 1524 1524 1524
1505 1502 1502 1502 1502 1503 1502 1502 1492 1484 1480 1477 1475 1474 1475 1475 1477 1478 1480 1483 1485 1487 1489 1491 1493 1496 1498 1500 1501 1503 1505 1507 1508 1511 1513 1514 1516 1517 1518 1519 1519 1520 1521 1521 1522 1522 1522 1522 1523
1503 1503 1502 1504 1505 1505 1502 1503 1495 1487 1481 1477 1475 1474 1474 1475 1477 1478 1480 1482 1485 1487 1489 1490 1493 1495 1497 1499 1501 1503 1504 1506 1508 1510 1512 1513 1514 1515 1516 1517 1518 1518 1519 1519 1520 1520 1520 1520 1521
1505 1508 1513 1510 1512 1507 1503 1502 1495 1482 1479 1477 1475 1473 1473 1474 1476 1477 1479 1481 1483 1485 1487 1489 1492 1494 1496 1498 1500 1502 1503 1505 1507 1509 1510 1512 1513 1514 1515 1515 1516 1517 1517 1517 1518 1518 1518 1518 1519
1506 1508 1515 1514 1514 1511 1504 1501 1489 1480 1478 1475 1474 1473 1473 1473 1474 1476 1478 1480 1482 1484 1486 1488 1491 1493 1495 1496 1498 1501 1502 1504 1506 1508 1509 1510 1511 1512 1513 1514 1514 1514 1515 1515 1516 1515 1515 1516 1516
1506 1511 1511 1517 1517 1517 1505 1497 1485 1478 1477 1475 1473 1473 1472 1473 1474 1475 1477 1479 1481 1483 1485 1487 1489 1491 1493 1495 1497 1499 1501 1503 1504 1506 1507 1508 1508 1509 1510 1511 1512 1512 1512 1513 1513 1513 1513 1513 1513
1506 1509 1516 1515 1512 1511 1503 1499 1493 1481 1478 1476 1475 1473 1473 1473 1473 1474 1476 1478 1480 1482 1484 1486 1488 1490 1492 1494 1495 1497 1499 1501 1502 1504 1505 1505 1506 1507 1507 1508 1509 1509 1509 1510 1510 1510 1510 1510 1510
1509 1510 1512 1517 1516 1515 1510 1499 1485 1481 1479 1477 1475 1474 1473 1473 1473 1474 1475 1477 1478 1480 1482 1484 1486 1488 1490 1491 1493 1495 1497 1498 1500 1501 1502 1503 1503 1504 1505 1505 1506 1506 1506 1507 1507 1507 1507 1506 1506
1505 1506 1511 1513 1514 1519 1518 1502 1480 1480 1478 1477 1475 1474 1473 1473 1473 1473 1474 1475 1476 1478 1480 1482 1484 1486 1488 1489 1491 1493 1494 1495 1497 1498 1499 1499 1500 1501 1501 1502 1502 1503 1503 1503 1503 1503 1503 1503 1503